Monterey, Australia

10:13 AM AEDT on October 23, 2017 (GMT +1100)
Monterey

Weather History for 94767 - December, 2013

Change the Weather History Date:

Tuesday, December 3, 2013

  Actual Average Record
Temperature  
Mean Temperature 70 °F -  
Max Temperature 79 °F 79 °F - ()
Min Temperature 61 °F 64 °F - ()
Cooling Degree Days 5    
Growing Degree Days 20 (Base 50)    
Moisture  
Dew Point 55 °F    
Average Humidity 56    
Maximum Humidity 77    
Minimum Humidity 29    
Precipitation  
Precipitation 0.00 in 0.11 in - ()
Sea Level Pressure  
Sea Level Pressure 29.97 in    
Wind  
Wind Speed 11 mph ()    
Max Wind Speed 26 mph    
Max Gust Speed 37 mph    
Visibility 10.1 miles    
Events      
T = Trace of Precipitation, MM = Missing Value Source: Averaged Metar Reports

Daily Weather History Graph

Daily Weather History Graph

Search for Another Location

Airport or City:

Trip Planner

Search our weather history database for the weather conditions in past years. The results will help you decide how hot, cold, wet, or windy it might be!

Date:

Astronomy

Dec. 03, 2013 Rise Set
Actual Time 5:37 AM AEDT 7:53 PM AEDT
Civil Twilight 5:08 AM AEDT 8:21 PM AEDT
Nautical Twilight 4:33 AM AEDT 8:57 PM AEDT
Astronomical Twilight 3:55 AM AEDT 9:35 PM AEDT
Moon 5:39 AM AEDT (12/3) 8:02 PM AEDT (12/3)
Length of Visible Light 15h 13m
Length of Day
14h 16m
New Moon, 0% of the Moon is Illuminated
Dec 3
New Moon
Dec 10
First Quarter
Dec 17
Full
Dec 26
Last Quarter
Jan 1
New

Hourly Weather History & Observations

Time (AEDT) Temp. Dew Point Humidity Pressure Visibility Wind Dir Wind Speed Gust Speed Precip Events Conditions
12:00 AM 67 °F 55 °F 56% 30.09 in 19 mi NNE 6.9 mph - -   Partly Cloudy
12:00 AM 66.2 °F 55.4 °F 68% 30.09 in - NNE 6.9 mph - N/A   Clear
12:30 AM 66.2 °F 55.4 °F 68% 30.06 in - NW 6.9 mph - N/A   Clear
1:00 AM 65 °F 55 °F 62% 30.08 in - NW 5.8 mph - -  
1:00 AM 64.4 °F 55.4 °F 73% 30.06 in 6.2 mi NW 5.8 mph - N/A   Partly Cloudy
2:00 AM 65 °F 55 °F 62% 30.06 in - NNW 5.8 mph - -  
2:00 AM 64.4 °F 55.4 °F 73% 30.04 in 6.2 mi NNW 5.8 mph - N/A   Partly Cloudy
2:30 AM 64.4 °F 55.4 °F 73% 30.04 in 6.2 mi NW 6.9 mph - N/A   Partly Cloudy
3:00 AM 63 °F 56 °F 70% 30.05 in 19 mi WNW 6.9 mph - -   Partly Cloudy
3:00 AM 62.6 °F 55.4 °F 77% 30.04 in 6.2 mi WNW 6.9 mph - N/A   Scattered Clouds
3:30 AM 62.6 °F 55.4 °F 77% 30.04 in 6.2 mi NW 6.9 mph - N/A   Scattered Clouds
4:00 AM 63 °F 55 °F 68% 30.05 in - NW 6.9 mph - -  
4:00 AM 62.6 °F 55.4 °F 77% 30.04 in 6.2 mi NW 6.9 mph - N/A   Partly Cloudy
4:30 AM 62.6 °F 55.4 °F 77% 30.04 in 6.2 mi NNW 5.8 mph - N/A   Partly Cloudy
5:00 AM 62 °F 55 °F 71% 30.05 in - North 6.9 mph - -  
5:00 AM 62.6 °F 55.4 °F 77% 30.04 in 6.2 mi North 6.9 mph - N/A   Partly Cloudy
5:30 AM 62.6 °F 55.4 °F 77% 30.04 in 6.2 mi NNW 6.9 mph - N/A   Partly Cloudy
6:00 AM 63 °F 54 °F 66% 30.06 in 16 mi North 5.8 mph - -   Partly Cloudy
6:00 AM 62.6 °F 55.4 °F 77% 30.04 in 6.2 mi North 5.8 mph - N/A   Partly Cloudy
6:30 AM 64.4 °F 55.4 °F 73% 30.04 in 6.2 mi North 6.9 mph - N/A   Partly Cloudy
7:00 AM 66 °F 55 °F 59% 30.06 in - NW 8.1 mph - -  
7:00 AM 66.2 °F 55.4 °F 68% 30.06 in 6.2 mi NW 8.1 mph - N/A   Partly Cloudy
7:30 AM 68.0 °F 53.6 °F 60% 30.04 in 6.2 mi North 11.5 mph - N/A   Partly Cloudy
8:00 AM 70 °F 54 °F 46% 30.06 in - North 10.4 mph - -  
8:00 AM 69.8 °F 53.6 °F 56% 30.04 in 6.2 mi North 10.4 mph - N/A   Partly Cloudy
8:30 AM 71.6 °F 51.8 °F 50% 30.04 in 6.2 mi North 10.4 mph - N/A   Partly Cloudy
9:00 AM 73 °F 51 °F 36% 30.06 in 16 mi North 10.4 mph - -   Partly Cloudy
9:00 AM 73.4 °F 51.8 °F 47% 30.04 in 6.2 mi North 10.4 mph - N/A   Partly Cloudy
9:30 AM 73.4 °F 51.8 °F 47% 30.04 in 6.2 mi North 11.5 mph - N/A   Partly Cloudy
10:00 AM 76 °F 51 °F 30% 30.04 in - NE 11.5 mph - -  
10:00 AM 75.2 °F 50.0 °F 41% 30.04 in - NE 11.5 mph - N/A   Clear
10:30 AM 75.2 °F 51.8 °F 44% 30.01 in - NNE 12.7 mph - N/A   Clear
11:00 AM 74 °F 53 °F 37% 30.02 in - NE 12.7 mph - -  
11:00 AM 73.4 °F 53.6 °F 50% 30.01 in - NE 12.7 mph - N/A   Clear
11:30 AM 77.0 °F 51.8 °F 41% 30.01 in - NNE 12.7 mph - N/A   Clear
12:00 PM 75 °F 53 °F 36% 30.00 in 19 mi NE 17.3 mph - -   Partly Cloudy
12:00 PM 75.2 °F 53.6 °F 47% 29.98 in - NE 17.3 mph - N/A   Clear
12:30 PM 75.2 °F 53.6 °F 47% 29.98 in - ENE 19.6 mph - N/A   Clear
1:00 PM 77 °F 53 °F 32% 29.98 in - ENE 19.6 mph - -  
1:00 PM 77.0 °F 53.6 °F 44% 29.98 in - ENE 19.6 mph - N/A   Clear
1:30 PM 75.2 °F 53.6 °F 47% 29.95 in - NE 21.9 mph - N/A   Clear
2:00 PM 79 °F 53 °F 29% 29.95 in - NE 21.9 mph - -  
2:00 PM 78.8 °F 53.6 °F 42% 29.95 in - NE 21.9 mph - N/A   Clear
2:30 PM 77.0 °F 51.8 °F 41% 29.92 in - NE 23.0 mph - N/A   Clear
3:00 PM 78 °F 53 °F 30% 29.93 in 19 mi NE 23.0 mph - -   Partly Cloudy
3:00 PM 78.8 °F 51.8 °F 39% 29.92 in - NE 23.0 mph - N/A   Clear
3:30 PM 77.0 °F 55.4 °F 47% 29.89 in - NE 21.9 mph - N/A   Clear
4:00 PM 76 °F 54 °F 37% 29.91 in - NE 20.7 mph - -  
4:00 PM 77.0 °F 55.4 °F 47% 29.89 in - NE 20.7 mph - N/A   Clear
4:30 PM 77.0 °F 55.4 °F 47% 29.89 in - NE 23.0 mph - N/A   Clear
5:00 PM 76 °F 56 °F 39% 29.88 in - NE 23.0 mph - -  
5:00 PM 77.0 °F 55.4 °F 47% 29.86 in - NE 23.0 mph - N/A   Clear
5:11 PM 77.0 °F 57.2 °F 50% 29.86 in - NE 24.2 mph 36.8 mph N/A   Clear
5:30 PM 77.0 °F 57.2 °F 50% 29.86 in - NE 24.2 mph - N/A   Clear
6:00 PM 75 °F 58 °F 45% 29.86 in 19 mi NE 25.3 mph - -   Partly Cloudy
6:00 PM 75.2 °F 57.2 °F 53% 29.83 in - NE 25.3 mph - N/A   Clear
6:30 PM 75.2 °F 57.2 °F 53% 29.86 in - NE 26.5 mph - N/A   Clear
7:00 PM 73 °F 58 °F 49% 29.87 in - NE 20.7 mph - -  
7:00 PM 73.4 °F 57.2 °F 57% 29.86 in - NE 20.7 mph - N/A   Clear
7:30 PM 71.6 °F 57.2 °F 60% 29.86 in - NE 24.2 mph - N/A   Clear
8:00 PM 71 °F 58 °F 54% 29.86 in - NE 23.0 mph - -  
8:00 PM 71.6 °F 57.2 °F 60% 29.86 in - NE 23.0 mph - N/A   Clear
8:30 PM 71.6 °F 59.0 °F 64% 29.86 in - NNE 18.4 mph - N/A   Clear
9:00 PM 71 °F 58 °F 55% 29.87 in 19 mi NNE 20.7 mph - -   Partly Cloudy
9:00 PM 69.8 °F 59.0 °F 68% 29.86 in - NNE 20.7 mph - N/A   Clear
9:30 PM 71.6 °F 59.0 °F 64% 29.86 in - NNE 16.1 mph - N/A   Clear
10:00 PM 70 °F 58 °F 58% 29.88 in - NNE 13.8 mph - -  
10:00 PM 69.8 °F 59.0 °F 68% 29.86 in - NNE 13.8 mph - N/A   Clear
10:30 PM 69.8 °F 59.0 °F 68% 29.86 in - NNE 11.5 mph - N/A   Clear
11:00 PM 70 °F 59 °F 60% 29.88 in - NNE 16.1 mph - -  
11:00 PM 69.8 °F 59.0 °F 68% 29.86 in - NNE 16.1 mph - N/A   Clear
11:30 PM 69.8 °F 59.0 °F 68% 29.86 in - NNE 15.0 mph - N/A   Clear